Flag for U.S.A. Weather past 2 weeks in Oceanside, California, U.S.A.

61 °F

Partly sunny.

Feels Like: 61 °F
Forecast: 44 / 60 °F
Wind: 8 mph from West

Location: Oceanside Weather Reporting Station

Current Time: Nov 27, 2015 at 3:29:58 PM

Latest Report: Nov 27, 2015 at 2:52 PM

Visibility: 10 mi

Pressure: 29.97 "Hg

Humidity: 50%

Dew point: 42 °F

Location of OceansideLocation

Historic Weather in Oceanside — Graph


Oceanside temperature yesterday

Maximum temperature yesterday: 64 °F (at 11:52 AM)
Minimum temperature yesterday: 42 °F (at 12:52 AM)
Average temperature yesterday: 54 °F

Past Weeks' High & Low Weather Summary

High88 °F (Nov 21, 10:52 AM)90% (Nov 27, 4:52 AM)30.19 "Hg (Nov 27, 4:52 AM)
Low35 °F (Nov 13, 3:52 AM)10% (Nov 14, 10:52 AM)29.84 "Hg (Nov 25, 2:52 AM)
Average57 °F54%29.95 "Hg
* Reported Nov 12 1:52 PM — Nov 27 1:52 PM, Oceanside, Weather by CustomWeather, © 2015

Note: Actual official high and low records may vary slightly from our data, if they occured in-between our weather recording intervals... More about our weather records


Oceanside weather history for previous 24 hours

Time TempWeatherWind HumidityBarometerVisibility
1:52 PM
Fri, Nov 27
62 °FPassing clouds.13 mph50%29.96 "Hg10 mi
12:52 PM62 °FPassing clouds.7 mph43%29.97 "Hg10 mi
11:52 AM61 °FMore clouds than sun.3 mph52%29.98 "Hg10 mi
10:52 AM60 °FPartly sunny.8 mph53%30.01 "Hg10 mi
9:52 AM57 °FOvercast.5 mph67%30.03 "Hg10 mi
8:52 AM55 °FSunny.6 mph69%30.03 "Hg10 mi
7:52 AM50 °FScattered clouds.5 mph86%30.01 "Hg10 mi
6:52 AM48 °FPartly sunny.5 mph89%30.00 "Hg10 mi
5:52 AM48 °FClear.7 mph89%29.99 "Hg10 mi
4:52 AM49 °FPassing clouds.6 mph90%29.98 "Hg10 mi
3:52 AM50 °FHeavy rain. Fog.6 mph89%29.99 "Hg2 mi
2:52 AM50 °FLight rain. Fog.6 mph86%29.98 "Hg6 mi
1:52 AM50 °FLight rain. Mostly cloudy.5 mph86%29.99 "Hg10 mi
12:52 AM50 °FPassing clouds.5 mph86%29.99 "Hg10 mi
11:52 PM
Thu, Nov 26
51 °FLight rain. Overcast.6 mph86%30.00 "Hg10 mi
11:04 PM51 °FHeavy rain. Mostly cloudy.3 mph83%30.01 "Hg2 mi
9:52 PM53 °FPartly cloudy.6 mph72%30.00 "Hg10 mi
8:52 PM52 °FClear.6 mph72%30.00 "Hg10 mi
7:52 PM58 °FOvercast.6 mph54%29.98 "Hg10 mi
6:52 PM59 °FMostly cloudy.7 mph49%29.98 "Hg10 mi
5:52 PM58 °FOvercast.8 mph54%29.98 "Hg10 mi
4:52 PM58 °FPassing clouds.6 mph51%29.97 "Hg10 mi
3:52 PM60 °FPartly sunny.9 mph52%29.97 "Hg10 mi
Weather by CustomWeather, © 2015

See weather overviewHow to use our weather pages